| time (UTC) | temp F | wind direction | speed knots | gust knots | rain 1hr in | rain 24hr in | rain mn in | humidity % | barometer mb |
| 20260507151658 | 59 | 116 | 3.5 | 10.4 | 0.00 | 0.00 | 0.00 | 41 | |
| 20260507151058 | 59 | 125 | 4.3 | 9.6 | 0.00 | 0.00 | 0.00 | 39 | |
| 20260507150458 | 58 | 136 | 3.5 | 7.0 | 0.00 | 0.00 | 0.00 | 41 | |
| 20260507145858 | 57 | 142 | 3.5 | 7.0 | 0.00 | 0.00 | 0.00 | 41 | |
| 20260507145258 | 56 | 147 | 1.7 | 7.0 | 0.00 | 0.00 | 0.00 | 44 | |
| 20260507144658 | 55 | 143 | 3.5 | 6.1 | 0.00 | 0.00 | 0.00 | 45 | |
| 20260507144058 | 54 | 165 | 2.6 | 4.3 | 0.00 | 0.00 | 0.00 | 45 | |
| 20260507143458 | 53 | 157 | 2.6 | 4.3 | 0.00 | 0.00 | 0.00 | 46 | |
| 20260507142858 | 51 | 144 | 0.0 | 4.3 | 0.00 | 0.00 | 0.00 | 49 | |
| 20260507142258 | 50 | 69 | 0.0 | 3.5 | 0.00 | 0.00 | 0.00 | 49 | |
| 20260507141658 | 49 | 160 | 0.0 | 4.3 | 0.00 | 0.00 | 0.00 | 49 | |
| 20260507141132 | 49 | 147 | 0.0 | 2.6 | 0.00 | 0.00 | 0.00 | 50 | |
| 20260507140458 | 47 | 159 | 0.0 | 2.6 | 0.00 | 0.00 | 0.00 | 54 | |
| 20260507135858 | 46 | 127 | 2.6 | 3.5 | 0.00 | 0.00 | 0.00 | 57 | |
| 20260507135258 | 45 | 113 | 1.7 | 3.5 | 0.00 | 0.00 | 0.00 | 61 | |
| 20260507134658 | 45 | 104 | 0.0 | 3.5 | 0.00 | 0.00 | 0.00 | 65 | |
| 20260507134058 | 43 | 50 | 0.0 | 2.6 | 0.00 | 0.00 | 0.00 | 68 | |
| 20260507133458 | 42 | 73 | 0.0 | 2.6 | 0.00 | 0.00 | 0.00 | 71 | |
| 20260507132915 | 42 | 156 | 0.0 | 2.6 | 0.00 | 0.00 | 0.00 | 77 | |
| 20260507132258 | 40 | 81 | 0.0 | 2.6 | 0.00 | 0.00 | 0.00 | 84 | |
| 20260507131658 | 39 | 140 | 0.0 | 1.7 | 0.00 | 0.00 | 0.00 | 93 | |
| 20260507131116 | 37 | 206 | 0.0 | 0.0 | 0.00 | 0.00 | 0.00 | 97 | |
| 20260507130458 | 35 | 244 | 0.0 | 1.7 | 0.00 | 0.00 | 0.00 | 98 | |
| 20260507125858 | 34 | 331 | 0.0 | 1.7 | 0.00 | 0.00 | 0.00 | 97 | |
| 20260507125258 | 33 | 225 | 0.0 | 3.5 | 0.00 | 0.00 | 0.00 | 97 | |
| 20260507124658 | 32 | 199 | 0.0 | 2.6 | 0.00 | 0.00 | 0.00 | 97 | |
| 20260507124115 | 32 | 157 | 0.0 | 2.6 | 0.00 | 0.00 | 0.00 | 97 | |
| 20260507123532 | 31 | 204 | 0.0 | 2.6 | 0.00 | 0.00 | 0.00 | 96 | |
| 20260507122858 | 32 | 320 | 0.0 | 2.6 | 0.00 | 0.00 | 0.00 | 96 | |
| 20260507122258 | 32 | 305 | 0.0 | 0.0 | 0.00 | 0.00 | 0.00 | 96 | |
| 20260507121658 | 32 | 94 | 0.0 | 2.6 | 0.00 | 0.00 | 0.00 | 96 | |
| 20260507121058 | 32 | 195 | 0.0 | 3.5 | 0.00 | 0.00 | 0.00 | 97 | |
| 20260507120458 | 32 | 243 | 0.0 | 1.7 | 0.00 | 0.00 | 0.00 | 97 | |
| 20260507115858 | 32 | 236 | 0.9 | 3.5 | 0.00 | 0.00 | 0.00 | 97 | |
| 20260507115259 | 32 | 249 | 0.0 | 2.6 | 0.00 | 0.00 | 0.00 | 96 | |
| 20260507114658 | 31 | 196 | 0.0 | 2.6 | 0.00 | 0.00 | 0.00 | 95 | |
| 20260507114115 | 32 | 260 | 0.0 | 1.7 | 0.00 | 0.00 | 0.00 | 95 | |
| 20260507113458 | 32 | 260 | 0.0 | 2.6 | 0.00 | 0.00 | 0.00 | 96 | |
| 20260507112858 | 32 | 209 | 0.0 | 0.0 | 0.00 | 0.00 | 0.00 | 95 | |
| 20260507112315 | 32 | 258 | 0.0 | 0.0 | 0.00 | 0.00 | 0.00 | 95 | |
| 20260507111658 | 32 | 238 | 0.0 | 0.0 | 0.00 | 0.00 | 0.00 | 94 | |
| 20260507111058 | 33 | 238 | 0.0 | 0.0 | 0.00 | 0.00 | 0.00 | 94 | |
| 20260507110516 | 33 | 238 | 0.0 | 1.7 | 0.00 | 0.00 | 0.00 | 94 | |
| 20260507105915 | 33 | 252 | 0.0 | 3.5 | 0.00 | 0.00 | 0.00 | 94 | |
| 20260507105258 | 34 | 266 | 0.9 | 2.6 | 0.00 | 0.00 | 0.00 | 96 | |
| 20260507104659 | 33 | 235 | 0.0 | 2.6 | 0.00 | 0.00 | 0.00 | 96 | |
| 20260507104058 | 34 | 241 | 0.0 | 1.7 | 0.00 | 0.00 | 0.00 | 96 | |
| 20260507103532 | 33 | 207 | 0.0 | 2.6 | 0.00 | 0.00 | 0.00 | 95 | |
| 20260507102858 | 33 | 253 | 0.0 | 0.0 | 0.00 | 0.00 | 0.00 | 95 | |
| 20260507102258 | 33 | 253 | 0.0 | 0.0 | 0.00 | 0.00 | 0.00 | 95 | |
| 20260507101732 | 34 | 253 | 0.0 | 0.0 | 0.00 | 0.00 | 0.00 | 95 | |
| 20260507101058 | 34 | 255 | 0.0 | 1.7 | 0.00 | 0.00 | 0.00 | 95 | |
| 20260507100509 | 34 | 255 | 0.0 | 1.7 | 0.00 | 0.00 | 0.00 | 94 | |
| 20260507095858 | 34 | 214 | 0.0 | 0.0 | 0.00 | 0.00 | 0.00 | 93 | |
| 20260507095258 | 34 | 214 | 0.0 | 2.6 | 0.00 | 0.00 | 0.00 | 93 | |
| 20260507094658 | 34 | 302 | 0.0 | 2.6 | 0.00 | 0.00 | 0.00 | 92 | |
| 20260507094058 | 34 | 127 | 0.0 | 1.7 | 0.00 | 0.00 | 0.00 | 91 | |
| 20260507093458 | 35 | 273 | 0.0 | 1.7 | 0.00 | 0.00 | 0.00 | 91 | |
| 20260507092858 | 35 | 231 | 0.0 | 0.0 | 0.00 | 0.00 | 0.00 | 88 | |
| 20260507092258 | 35 | 283 | 0.0 | 1.7 | 0.00 | 0.00 | 0.00 | 88 | |
| 20260507091658 | 36 | 283 | 0.0 | 1.7 | 0.00 | 0.00 | 0.00 | 85 | |
| 20260507091058 | 36 | 279 | 0.9 | 1.7 | 0.00 | 0.00 | 0.00 | 85 | |
| 20260507090532 | 36 | 278 | 0.9 | 1.7 | 0.00 | 0.00 | 0.00 | 88 | |
| 20260507085915 | 36 | 269 | 0.0 | 1.7 | 0.00 | 0.00 | 0.00 | 85 | |
| 20260507085258 | 36 | 256 | 0.9 | 2.6 | 0.00 | 0.00 | 0.00 | 85 | |
| 20260507084715 | 37 | 284 | 0.0 | 2.6 | 0.00 | 0.00 | 0.00 | 85 | |
| 20260507084058 | 36 | 269 | 0.0 | 3.5 | 0.00 | 0.00 | 0.00 | 87 | |
| 20260507083515 | 36 | 274 | 0.0 | 3.5 | 0.00 | 0.00 | 0.00 | 86 | |
| 20260507082915 | 36 | 284 | 0.0 | 2.6 | 0.00 | 0.00 | 0.00 | 88 | |
| 20260507082258 | 37 | 259 | 2.6 | 2.6 | 0.00 | 0.00 | 0.00 | 87 | |
| 20260507081658 | 37 | 276 | 0.0 | 1.7 | 0.00 | 0.00 | 0.00 | 84 | |
| 20260507081058 | 37 | 265 | 0.0 | 4.3 | 0.00 | 0.00 | 0.00 | 84 | |
| 20260507080458 | 37 | 267 | 0.9 | 2.6 | 0.00 | 0.00 | 0.00 | 85 | |
| 20260507075858 | 37 | 277 | 1.7 | 3.5 | 0.00 | 0.00 | 0.00 | 84 | |
| 20260507075258 | 36 | 262 | 0.0 | 1.7 | 0.00 | 0.00 | 0.00 | 89 | |
| 20260507074658 | 37 | 54 | 0.0 | 2.6 | 0.00 | 0.00 | 0.00 | 86 | |
| 20260507074058 | 37 | 309 | 0.0 | 3.5 | 0.00 | 0.00 | 0.00 | 84 | |
| 20260507073458 | 37 | 307 | 0.0 | 3.5 | 0.00 | 0.00 | 0.00 | 87 | |
| 20260507072858 | 36 | 272 | 0.0 | 2.6 | 0.00 | 0.00 | 0.00 | 88 | |
| 20260507072258 | 36 | 39 | 0.0 | 2.6 | 0.00 | 0.00 | 0.00 | 86 | |
| 20260507071658 | 37 | 227 | 0.0 | 2.6 | 0.00 | 0.00 | 0.00 | 82 | |
| 20260507071115 | 37 | 237 | 1.7 | 2.6 | 0.00 | 0.00 | 0.00 | 84 | |
| 20260507070515 | 37 | 245 | 0.9 | 2.6 | 0.00 | 0.00 | 0.00 | 82 | |
| 20260507065859 | 37 | 272 | 1.7 | 3.5 | 0.00 | 0.00 | 0.00 | 81 | |
| 20260507065316 | 37 | 268 | 0.0 | 2.6 | 0.00 | 0.00 | 0.00 | 84 | |
| 20260507064715 | 37 | 268 | 0.9 | 0.0 | 0.00 | 0.00 | 0.00 | 84 | |
| 20260507064058 | 38 | 270 | 0.0 | 2.6 | 0.00 | 0.00 | 0.00 | 83 | |
| 20260507063459 | 38 | 0 | 0.0 | 3.5 | 0.00 | 0.00 | 0.00 | 76 | |
| 20260507062858 | 39 | 292 | 0.9 | 2.6 | 0.00 | 0.00 | 0.00 | 80 | |
| 20260507062259 | 40 | 2 | 0.0 | 0.9 | 0.00 | 0.00 | 0.00 | 74 | |
| 20260507061658 | 40 | 96 | 0.0 | 4.3 | 0.00 | 0.00 | 0.00 | 74 | |
| 20260507061058 | 39 | 285 | 0.0 | 2.6 | 0.00 | 0.00 | 0.00 | 74 | |
| 20260507060458 | 40 | 285 | 0.9 | 1.7 | 0.00 | 0.00 | 0.00 | 75 | |
| 20260507055858 | 41 | 282 | 0.0 | 2.6 | 0.00 | 0.00 | 0.00 | 73 | |
| 20260507055258 | 41 | 262 | 0.0 | 2.6 | 0.00 | 0.00 | 0.00 | 72 | |
| 20260507054658 | 42 | 274 | 1.7 | 1.7 | 0.00 | 0.00 | 0.00 | 70 | |
| 20260507054058 | 43 | 266 | 0.0 | 3.5 | 0.00 | 0.00 | 0.00 | 67 | |
| 20260507053515 | 43 | 266 | 2.6 | 3.5 | 0.00 | 0.00 | 0.00 | 65 | |
| 20260507052858 | 45 | 267 | 0.0 | 1.7 | 0.00 | 0.00 | 0.00 | 64 | |
| 20260507052258 | 48 | 217 | 0.0 | 3.5 | 0.00 | 0.00 | 0.00 | 54 | |
| 20260507051732 | 48 | 211 | 0.9 | 3.5 | 0.00 | 0.00 | 0.00 | 51 | |
| 20260507051102 | 47 | 235 | 1.7 | 3.5 | 0.00 | 0.00 | 0.00 | 54 | |
| 20260507050458 | 46 | 220 | 0.9 | 2.6 | 0.00 | 0.00 | 0.00 | 56 | |
| 20260507045858 | 45 | 173 | 0.9 | 2.6 | 0.00 | 0.00 | 0.00 | 57 | |
| 20260507045259 | 44 | 222 | 0.9 | 1.7 | 0.00 | 0.00 | 0.00 | 60 | |
| 20260507044658 | 46 | 181 | 0.0 | 1.7 | 0.00 | 0.00 | 0.00 | 57 | |
| 20260507044058 | 47 | 230 | 0.0 | 2.6 | 0.00 | 0.00 | 0.00 | 54 | |
| 20260507043550 | 47 | 217 | 0.9 | 2.6 | 0.00 | 0.00 | 0.00 | 51 | |
| 20260507042858 | 47 | 236 | 0.0 | 2.6 | 0.00 | 0.00 | 0.00 | 51 | |
| 20260507042258 | 48 | 232 | 0.0 | 2.6 | 0.00 | 0.00 | 0.00 | 51 | |
| 20260507041658 | 48 | 244 | 0.9 | 2.6 | 0.00 | 0.00 | 0.00 | 52 | |
| 20260507041116 | 50 | 253 | 0.0 | 2.6 | 0.00 | 0.00 | 0.00 | 47 | |
| 20260507040459 | 52 | 240 | 1.7 | 2.6 | 0.00 | 0.00 | 0.00 | 42 | |
| 20260507035858 | 53 | 245 | 0.0 | 3.5 | 0.00 | 0.00 | 0.00 | 40 | |
| 20260507035258 | 53 | 257 | 1.7 | 4.3 | 0.00 | 0.00 | 0.00 | 38 | |
| 20260507034715 | 53 | 235 | 1.7 | 3.5 | 0.00 | 0.00 | 0.00 | 38 | |
| 20260507034058 | 53 | 249 | 1.7 | 4.3 | 0.00 | 0.00 | 0.00 | 39 | |
| 20260507033459 | 53 | 246 | 2.6 | 4.3 | 0.00 | 0.00 | 0.00 | 39 | |
| 20260507032916 | 54 | 270 | 2.6 | 5.2 | 0.00 | 0.00 | 0.00 | 37 | |
| 20260507032258 | 54 | 233 | 1.7 | 4.3 | 0.00 | 0.00 | 0.00 | 37 | |
| 20260507031715 | 54 | 251 | 2.6 | 4.3 | 0.00 | 0.00 | 0.00 | 35 | |
| 20260507031058 | 55 | 244 | 1.7 | 3.5 | 0.00 | 0.00 | 0.00 | 35 | |
| 20260507030458 | 56 | 247 | 0.9 | 4.3 | 0.00 | 0.00 | 0.00 | 34 | |
| 20260507025858 | 56 | 256 | 1.7 | 5.2 | 0.00 | 0.00 | 0.00 | 33 | |
| 20260507025259 | 57 | 254 | 1.7 | 3.5 | 0.00 | 0.00 | 0.00 | 33 | |
| 20260507024659 | 57 | 227 | 0.9 | 3.5 | 0.00 | 0.00 | 0.00 | 33 | |
| 20260507024115 | 58 | 223 | 1.7 | 6.1 | 0.00 | 0.00 | 0.00 | 31 | |
| 20260507023458 | 59 | 259 | 2.6 | 6.1 | 0.00 | 0.00 | 0.00 | 30 | |
| 20260507022859 | 59 | 242 | 2.6 | 6.1 | 0.00 | 0.00 | 0.00 | 29 | |
| 20260507022259 | 60 | 264 | 2.6 | 7.8 | 0.00 | 0.00 | 0.00 | 27 | |
| 20260507021658 | 60 | 271 | 2.6 | 7.8 | 0.00 | 0.00 | 0.00 | 26 | |
| 20260507021058 | 61 | 267 | 3.5 | 9.6 | 0.00 | 0.00 | 0.00 | 26 | |
| 20260507020458 | 61 | 240 | 3.5 | 8.7 | 0.00 | 0.00 | 0.00 | 25 | |
| 20260507015858 | 62 | 223 | 4.3 | 9.6 | 0.00 | 0.00 | 0.00 | 25 | |
| 20260507015258 | 63 | 249 | 3.5 | 13.0 | 0.00 | 0.00 | 0.00 | 24 | |
| 20260507014715 | 63 | 271 | 5.2 | 13.9 | 0.00 | 0.00 | 0.00 | 24 | |
| 20260507014058 | 63 | 282 | 5.2 | 12.2 | 0.00 | 0.00 | 0.00 | 23 | |
| 20260507013458 | 64 | 240 | 5.2 | 12.2 | 0.00 | 0.00 | 0.00 | 22 | |
| 20260507012858 | 64 | 254 | 5.2 | 10.4 | 0.00 | 0.00 | 0.00 | 22 | |
| 20260507012258 | 65 | 240 | 4.3 | 11.3 | 0.00 | 0.00 | 0.00 | 22 | |
| 20260507011658 | 65 | 282 | 4.3 | 13.0 | 0.00 | 0.00 | 0.00 | 21 | |
| 20260507011058 | 66 | 266 | 4.3 | 12.2 | 0.00 | 0.00 | 0.00 | 19 | |
| 20260507010515 | 66 | 269 | 4.3 | 13.9 | 0.00 | 0.00 | 0.00 | 19 | |
| 20260507005858 | 66 | 226 | 6.1 | 15.6 | 0.00 | 0.00 | 0.00 | 19 | |
| 20260507005258 | 67 | 236 | 7.8 | 18.2 | 0.00 | 0.00 | 0.00 | 18 | |
| 20260507004658 | 67 | 260 | 7.0 | 15.6 | 0.00 | 0.00 | 0.00 | 17 | |
| 20260507004058 | 67 | 240 | 4.3 | 17.4 | 0.00 | 0.00 | 0.00 | 16 | |
| 20260507003458 | 68 | 261 | 6.1 | 18.2 | 0.00 | 0.00 | 0.00 | 15 | |
| 20260507002858 | 68 | 239 | 8.7 | 16.5 | 0.00 | 0.00 | 0.00 | 14 | |
| 20260507002258 | 68 | 217 | 6.1 | 14.8 | 0.00 | 0.00 | 0.00 | 15 | |
| 20260507001658 | 69 | 247 | 5.2 | 14.8 | 0.00 | 0.00 | 0.00 | 13 | |
| 20260507001058 | 69 | 229 | 4.3 | 15.6 | 0.00 | 0.00 | 0.00 | 14 | |
| 20260507000459 | 69 | 240 | 4.3 | 18.2 | 0.00 | 0.00 | 0.00 | 13 | |
| 20260506235858 | 70 | 238 | 5.2 | 16.5 | 0.00 | 0.00 | 0.00 | 13 | |
| 20260506235258 | 70 | 267 | 4.3 | 15.6 | 0.00 | 0.00 | 0.00 | 15 | |
| 20260506234658 | 70 | 210 | 6.1 | 16.5 | 0.00 | 0.00 | 0.00 | 14 | |
| 20260506234115 | 70 | 247 | 6.1 | 14.8 | 0.00 | 0.00 | 0.00 | 14 | |
| 20260506233515 | 70 | 268 | 6.1 | 14.8 | 0.00 | 0.00 | 0.00 | 14 | |
| 20260506232858 | 71 | 211 | 4.3 | 18.2 | 0.00 | 0.00 | 0.00 | 14 | |
| 20260506232258 | 70 | 217 | 5.2 | 16.5 | 0.00 | 0.00 | 0.00 | 15 | |
| 20260506231658 | 70 | 206 | 6.1 | 19.1 | 0.00 | 0.00 | 0.00 | 13 | |
| 20260506231116 | 71 | 207 | 5.2 | 16.5 | 0.00 | 0.00 | 0.00 | 12 | |
| 20260506230458 | 71 | 184 | 3.5 | 17.4 | 0.00 | 0.00 | 0.00 | 13 | |
| 20260506225915 | 71 | 238 | 4.3 | 14.8 | 0.00 | 0.00 | 0.00 | 15 | |
| 20260506225315 | 72 | 179 | 5.2 | 14.8 | 0.00 | 0.00 | 0.00 | 14 | |
| 20260506224658 | 72 | 223 | 3.5 | 17.4 | 0.00 | 0.00 | 0.00 | 12 | |
| 20260506224058 | 72 | 221 | 3.5 | 13.9 | 0.00 | 0.00 | 0.00 | 13 | |
| 20260506223458 | 72 | 273 | 3.5 | 15.6 | 0.00 | 0.00 | 0.00 | 15 | |
| 20260506222858 | 72 | 246 | 5.2 | 16.5 | 0.00 | 0.00 | 0.00 | 13 | |
| 20260506222258 | 72 | 198 | 4.3 | 13.9 | 0.00 | 0.00 | 0.00 | 15 | |
| 20260506221658 | 72 | 184 | 6.1 | 16.5 | 0.00 | 0.00 | 0.00 | 16 | |
| 20260506221058 | 72 | 246 | 8.7 | 20.9 | 0.00 | 0.00 | 0.00 | 15 | |
| 20260506220458 | 72 | 242 | 6.1 | 15.6 | 0.00 | 0.00 | 0.00 | 16 | |
| 20260506215859 | 73 | 202 | 6.1 | 13.9 | 0.00 | 0.00 | 0.00 | 15 | |
| 20260506215259 | 72 | 207 | 6.1 | 16.5 | 0.00 | 0.00 | 0.00 | 17 | |
| 20260506214658 | 73 | 180 | 6.1 | 19.1 | 0.00 | 0.00 | 0.00 | 15 | |
| 20260506214058 | 72 | 210 | 0.9 | 16.5 | 0.00 | 0.00 | 0.00 | 17 | |
| 20260506213515 | 72 | 221 | 9.6 | 14.8 | 0.00 | 0.00 | 0.00 | 16 | |
| 20260506212916 | 73 | 243 | 3.5 | 16.5 | 0.00 | 0.00 | 0.00 | 15 | |
| 20260506212315 | 73 | 235 | 2.6 | 14.8 | 0.00 | 0.00 | 0.00 | 16 | |
| 20260506211658 | 73 | 228 | 4.3 | 17.4 | 0.00 | 0.00 | 0.00 | 17 | |
| 20260506211058 | 72 | 199 | 6.1 | 18.2 | 0.00 | 0.00 | 0.00 | 16 | |
| 20260506210459 | 73 | 259 | 9.6 | 16.5 | 0.00 | 0.00 | 0.00 | 15 | |
| 20260506205858 | 72 | 225 | 5.2 | 14.8 | 0.00 | 0.00 | 0.00 | 16 | |
| 20260506205258 | 71 | 264 | 7.0 | 19.1 | 0.00 | 0.00 | 0.00 | 16 | |
| 20260506204658 | 72 | 210 | 2.6 | 16.5 | 0.00 | 0.00 | 0.00 | 15 | |
| 20260506204058 | 72 | 248 | 9.6 | 19.1 | 0.00 | 0.00 | 0.00 | 15 | |
| 20260506203458 | 72 | 260 | 6.1 | 20.0 | 0.00 | 0.00 | 0.00 | 13 | |
| 20260506202915 | 72 | 271 | 7.0 | 20.0 | 0.00 | 0.00 | 0.00 | 15 | |
| 20260506202258 | 72 | 214 | 6.1 | 26.1 | 0.00 | 0.00 | 0.00 | 16 | |
| 20260506201658 | 72 | 267 | 3.5 | 17.4 | 0.00 | 0.00 | 0.00 | 17 | |
| 20260506201058 | 71 | 203 | 5.2 | 19.1 | 0.00 | 0.00 | 0.00 | 16 | |
| 20260506200458 | 72 | 250 | 3.5 | 18.2 | 0.00 | 0.00 | 0.00 | 18 | |
| 20260506195858 | 73 | 271 | 3.5 | 15.6 | 0.00 | 0.00 | 0.00 | 18 | |
| 20260506195258 | 73 | 222 | 4.3 | 14.8 | 0.00 | 0.00 | 0.00 | 16 | |
| 20260506194715 | 71 | 222 | 4.3 | 18.2 | 0.00 | 0.00 | 0.00 | 17 | |
| 20260506194058 | 71 | 270 | 4.3 | 18.2 | 0.00 | 0.00 | 0.00 | 19 | |
| 20260506193458 | 71 | 237 | 8.7 | 18.2 | 0.00 | 0.00 | 0.00 | 17 | |
| 20260506192858 | 71 | 258 | 10.4 | 18.2 | 0.00 | 0.00 | 0.00 | 16 | |
| 20260506192315 | 71 | 267 | 8.7 | 19.1 | 0.00 | 0.00 | 0.00 | 16 | |
| 20260506191658 | 71 | 259 | 10.4 | 20.9 | 0.00 | 0.00 | 0.00 | 16 | |
| 20260506191059 | 71 | 252 | 7.0 | 20.9 | 0.00 | 0.00 | 0.00 | 15 | |
| 20260506190458 | 71 | 284 | 7.8 | 17.4 | 0.00 | 0.00 | 0.00 | 15 | |
| 20260506185858 | 70 | 253 | 5.2 | 22.6 | 0.00 | 0.00 | 0.00 | 18 | |
| 20260506185258 | 70 | 267 | 7.0 | 15.6 | 0.00 | 0.00 | 0.00 | 16 | |
| 20260506184658 | 71 | 208 | 7.0 | 16.5 | 0.00 | 0.00 | 0.00 | 18 | |
| 20260506184058 | 70 | 239 | 5.2 | 21.7 | 0.00 | 0.00 | 0.00 | 17 | |
| 20260506183458 | 70 | 285 | 7.0 | 18.2 | 0.00 | 0.00 | 0.00 | 15 | |
| 20260506182932 | 70 | 234 | 6.1 | 14.8 | 0.00 | 0.00 | 0.00 | 18 | |
| 20260506182258 | 69 | 243 | 6.1 | 11.3 | 0.00 | 0.00 | 0.00 | 18 | |
| 20260506181658 | 69 | 221 | 4.3 | 20.0 | 0.00 | 0.00 | 0.00 | 22 | |
| 20260506181058 | 69 | 260 | 7.8 | 19.1 | 0.00 | 0.00 | 0.00 | 18 | |
| 20260506180458 | 69 | 232 | 3.5 | 16.5 | 0.00 | 0.00 | 0.00 | 21 | |
| 20260506175858 | 69 | 248 | 5.2 | 18.2 | 0.00 | 0.00 | 0.00 | 19 | |
| 20260506175258 | 69 | 213 | 7.8 | 14.8 | 0.00 | 0.00 | 0.00 | 19 | |
| 20260506174658 | 69 | 219 | 4.3 | 14.8 | 0.00 | 0.00 | 0.00 | 23 | |
| 20260506174058 | 69 | 275 | 5.2 | 19.1 | 0.00 | 0.00 | 0.00 | 20 | |
| 20260506173458 | 67 | 310 | 7.8 | 17.4 | 0.00 | 0.00 | 0.00 | 22 | |
| 20260506172858 | 67 | 270 | 7.0 | 18.2 | 0.00 | 0.00 | 0.00 | 22 | |
| 20260506172258 | 69 | 263 | 4.3 | 14.8 | 0.00 | 0.00 | 0.00 | 21 | |
| 20260506171658 | 67 | 265 | 6.1 | 15.6 | 0.00 | 0.00 | 0.00 | 23 | |
| 20260506171058 | 66 | 259 | 4.3 | 18.2 | 0.00 | 0.00 | 0.00 | 22 | |
| 20260506170458 | 66 | 222 | 5.2 | 19.1 | 0.00 | 0.00 | 0.00 | 25 | |
| 20260506165858 | 66 | 284 | 6.1 | 13.0 | 0.00 | 0.00 | 0.00 | 23 | |
| 20260506165258 | 65 | 281 | 3.5 | 13.9 | 0.00 | 0.00 | 0.00 | 26 | |
| 20260506164658 | 65 | 274 | 6.1 | 20.0 | 0.00 | 0.00 | 0.00 | 25 | |
| 20260506164115 | 64 | 273 | 7.8 | 17.4 | 0.00 | 0.00 | 0.00 | 25 | |
| 20260506163458 | 64 | 277 | 4.3 | 20.0 | 0.00 | 0.00 | 0.00 | 27 | |
| 20260506162858 | 63 | 266 | 6.1 | 16.5 | 0.00 | 0.00 | 0.00 | 27 | |
| 20260506162258 | 64 | 281 | 7.8 | 20.0 | 0.00 | 0.00 | 0.00 | 25 | |
| 20260506161658 | 63 | 249 | 5.2 | 17.4 | 0.00 | 0.00 | 0.00 | 28 | |
| 20260506161058 | 63 | 267 | 9.6 | 20.0 | 0.00 | 0.00 | 0.00 | 27 | |
| 20260506160458 | 62 | 248 | 7.0 | 20.0 | 0.00 | 0.00 | 0.00 | 27 | |
| 20260506155858 | 62 | 248 | 3.5 | 13.0 | 0.00 | 0.00 | 0.00 | 30 | |
| 20260506155315 | 62 | 243 | 6.1 | 16.5 | 0.00 | 0.00 | 0.00 | 30 | |
| 20260506154658 | 62 | 246 | 3.5 | 13.9 | 0.00 | 0.00 | 0.00 | 33 | |
| 20260506154058 | 61 | 300 | 3.5 | 13.9 | 0.00 | 0.00 | 0.00 | 34 | |
| 20260506153458 | 61 | 276 | 7.0 | 18.2 | 0.00 | 0.00 | 0.00 | 32 | |
| 20260506152949 | 60 | 225 | 5.2 | 16.5 | 0.00 | 0.00 | 0.00 | 34 | |
| 20260506152258 | 60 | 246 | 6.1 | 15.6 | 0.00 | 0.00 | 0.00 | 36 |